Weather History for Beaver Island, MI

Change the Weather History Date:

Monday, October 15, 2012

  Actual Average Record
Temperature  
Mean Temperature 44 °F -  
Max Temperature 46 °F 55 °F 79 °F (1968)
Min Temperature 36 °F 42 °F 28 °F (1978)
Degree Days  
Heating Degree Days 22    
Moisture  
Dew Point 36 °F    
Average Humidity 74    
Maximum Humidity 87    
Minimum Humidity 63    
Precipitation  
Precipitation 0.00 in - - ()
Sea Level Pressure  
Sea Level Pressure 29.74 in    
Wind  
Wind Speed 13 mph (NW)    
Max Wind Speed 22 mph    
Max Gust Speed 32 mph    
Visibility 10 miles    
Events Rain    
Averages and records for this station are not official NWS values.
T = Trace of Precipitation, MM = Missing Value Source: NWS Daily Summary

Daily Weather History Graph

Daily Weather History Graph

Search for Another Location

Airport:

Trip Planner

Search our weather history database for the weather conditions in past years. The results will help you decide how hot, cold, wet, or windy it might be!

Date:

Astronomy

Oct. 15, 2012 Rise Set
Actual Time 7:59 AM EDT 6:55 PM EDT
Civil Twilight 7:29 AM EDT 7:25 PM EDT
Nautical Twilight 6:54 AM EDT 8:00 PM EDT
Astronomical Twilight 6:20 AM EDT 8:34 PM EDT
Moon 8:12 AM EDT (10/15) 6:50 PM EDT (10/15)
Length of Visible Light 11h 56m
Length of Day
10h 56m
Waxing Crescent, 0% of the Moon is Illuminated
Oct 15
Waxing Crescent
Oct 21
First Quarter
Oct 29
Full
Nov 6
Last Quarter
Nov 13
New

Hourly Weather History & Observations

Time (EDT) Temp. Windchill Dew Point Humidity Pressure Visibility Wind Dir Wind Speed Gust Speed Precip Events Conditions
12:15 AM 45.5 °F 38.9 °F 41.9 °F 87% 29.46 in 10.0 mi NW 15.0 mph 24.2 mph N/A Rain Rain
12:35 AM 45.5 °F 38.1 °F 41.9 °F 87% 29.46 in 10.0 mi NNW 18.4 mph 25.3 mph N/A Rain Light Rain
12:54 AM 45.5 °F 39.2 °F 41.9 °F 87% 29.48 in 10.0 mi NNW 13.8 mph 27.6 mph N/A Rain Light Rain
1:15 AM 45.5 °F 38.3 °F 41.4 °F 85% 29.48 in 10.0 mi NW 17.3 mph 25.3 mph N/A Rain Light Rain
1:35 AM 45.5 °F 38.6 °F 41.0 °F 84% 29.49 in 10.0 mi NNW 16.1 mph 28.8 mph N/A   Overcast
1:55 AM 45.5 °F 39.2 °F 40.5 °F 83% 29.50 in 10.0 mi NW 13.8 mph 28.8 mph N/A   Overcast
2:15 AM 45.3 °F 37.8 °F 40.1 °F 82% 29.50 in 10.0 mi NW 18.4 mph 32.2 mph N/A   Light Drizzle
2:35 AM 45.3 °F 39.7 °F 40.5 °F 83% 29.51 in 10.0 mi NW 11.5 mph 29.9 mph N/A   Light Drizzle
2:55 AM 44.8 °F 37.4 °F 40.6 °F 85% 29.52 in 10.0 mi NW 17.3 mph 28.8 mph N/A Rain Rain
3:15 AM 44.8 °F 38.7 °F 40.5 °F 85% 29.52 in 10.0 mi NNW 12.7 mph 28.8 mph N/A   Drizzle
3:35 AM 44.8 °F 38.3 °F 41.0 °F 87% 29.53 in 10.0 mi NNW 13.8 mph 27.6 mph N/A Rain Light Rain
3:55 AM 44.8 °F 38.0 °F 41.0 °F 87% 29.54 in 7.0 mi NW 15.0 mph 29.9 mph N/A Rain Light Rain
4:15 AM 44.6 °F 37.4 °F 40.6 °F 86% 29.55 in 7.0 mi NW 16.1 mph 24.2 mph N/A Rain Rain
4:35 AM 44.2 °F 35.7 °F 40.1 °F 85% 29.56 in 10.0 mi NW 21.9 mph 31.1 mph N/A   Drizzle
4:55 AM 44.2 °F 37.3 °F 40.1 °F 85% 29.57 in 10.0 mi NW 15.0 mph 31.1 mph N/A   Drizzle
5:15 AM 44.2 °F 37.3 °F 39.7 °F 84% 29.58 in 10.0 mi NW 15.0 mph 32.2 mph N/A Rain Rain
5:55 AM 44.2 °F 38.0 °F 39.6 °F 84% 29.60 in 10.0 mi NW 12.7 mph 27.6 mph N/A Rain Light Rain
6:15 AM 43.7 °F 36.0 °F 39.4 °F 85% 29.61 in 10.0 mi NW 17.3 mph 31.1 mph N/A Rain Light Rain
6:55 AM 43.5 °F 36.1 °F 39.0 °F 84% 29.63 in 10.0 mi NW 16.1 mph 25.3 mph N/A Rain Rain
7:15 AM 43.2 °F 35.9 °F 38.5 °F 84% 29.64 in 10.0 mi NW 15.0 mph 28.8 mph N/A   Drizzle
7:35 AM 43.3 °F 36.5 °F 38.5 °F 83% 29.65 in 10.0 mi NNW 13.8 mph 26.5 mph N/A   Light Drizzle
7:55 AM 43.5 °F 36.7 °F 38.7 °F 83% 29.66 in 10.0 mi NW 13.8 mph 24.2 mph N/A   Drizzle
8:15 AM 43.7 °F 36.9 °F 38.5 °F 82% 29.67 in 10.0 mi NW 13.8 mph 25.3 mph N/A   Drizzle
8:35 AM 44.2 °F 37.6 °F 39.2 °F 82% 29.68 in 10.0 mi NW 13.8 mph 26.5 mph N/A   Light Drizzle
8:55 AM 44.2 °F 38.0 °F 38.3 °F 80% 29.69 in 10.0 mi NNW 12.7 mph 25.3 mph N/A   Overcast
9:15 AM 44.6 °F 39.2 °F 38.7 °F 80% 29.71 in 10.0 mi NW 10.4 mph 20.7 mph N/A   Overcast
9:35 AM 44.8 °F 38.7 °F 38.3 °F 78% 29.71 in 10.0 mi NW 12.7 mph 26.5 mph N/A   Overcast
9:55 AM 44.8 °F 38.0 °F 38.3 °F 78% 29.73 in 10.0 mi NNW 15.0 mph 27.6 mph N/A   Overcast
10:15 AM 44.6 °F 38.4 °F 37.8 °F 77% 29.73 in 10.0 mi NNW 12.7 mph 25.3 mph N/A   Overcast
10:35 AM 44.8 °F 38.7 °F 37.4 °F 75% 29.74 in 10.0 mi NNW 12.7 mph 23.0 mph N/A   Overcast
10:55 AM 45.3 °F 39.0 °F 37.9 °F 75% 29.75 in 10.0 mi NW 13.8 mph 25.3 mph N/A   Overcast
11:15 AM 45.5 °F 39.6 °F 37.9 °F 75% 29.76 in 10.0 mi NW 12.7 mph 21.9 mph N/A   Overcast
11:35 AM 45.5 °F 39.2 °F 37.2 °F 73% 29.77 in 10.0 mi NW 13.8 mph 23.0 mph N/A   Overcast
11:55 AM 45.5 °F 38.6 °F 36.5 °F 71% 29.77 in 10.0 mi NW 16.1 mph 24.2 mph N/A   Overcast
12:13 PM 45.9 °F 39.7 °F 36.7 °F 70% 29.78 in 10.0 mi NW 13.8 mph 20.7 mph N/A   Overcast
12:35 PM 46.0 °F 41.0 °F 36.1 °F 68% 29.78 in 10.0 mi NW 10.4 mph 20.7 mph N/A   Overcast
12:55 PM 45.5 °F 40.3 °F 36.0 °F 69% 29.79 in 10.0 mi NNW 10.4 mph 17.3 mph N/A   Overcast
1:15 PM 45.5 °F 39.2 °F 35.8 °F 69% 29.80 in 10.0 mi NW 13.8 mph 25.3 mph N/A   Overcast
1:35 PM 46.2 °F 40.5 °F 35.8 °F 67% 29.80 in 10.0 mi NW 12.7 mph 19.6 mph N/A   Overcast
1:55 PM 45.7 °F 39.5 °F 35.4 °F 67% 29.80 in 10.0 mi NW 13.8 mph 21.9 mph N/A   Overcast
2:15 PM 45.9 °F 40.0 °F 35.2 °F 66% 29.80 in 10.0 mi NNW 12.7 mph 21.9 mph N/A   Overcast
2:35 PM 45.7 °F 39.5 °F 35.1 °F 66% 29.81 in 10.0 mi NW 13.8 mph 19.6 mph N/A   Overcast
2:55 PM 45.5 °F 39.9 °F 35.4 °F 68% 29.82 in 10.0 mi NW 11.5 mph 20.7 mph N/A   Overcast
3:15 PM 46.0 °F 40.2 °F 34.7 °F 65% 29.83 in 10.0 mi NNW 12.7 mph 20.7 mph N/A   Overcast
3:35 PM 45.7 °F 39.1 °F 34.7 °F 65% 29.83 in 10.0 mi NW 15.0 mph 20.7 mph N/A   Overcast
3:55 PM 46.0 °F 40.6 °F 34.3 °F 64% 29.83 in 10.0 mi NNW 11.5 mph 16.1 mph N/A   Overcast
4:14 PM 45.9 °F 41.2 °F 34.9 °F 66% 29.83 in 10.0 mi NNW 9.2 mph 17.3 mph N/A   Overcast
4:35 PM 45.5 °F 39.9 °F 34.3 °F 65% 29.84 in 10.0 mi NW 11.5 mph 17.3 mph N/A   Overcast
4:55 PM 45.0 °F 40.1 °F 34.2 °F 66% 29.86 in 10.0 mi NNW 9.2 mph 18.4 mph N/A   Overcast
5:15 PM 45.3 °F 40.6 °F 34.7 °F 66% 29.86 in 10.0 mi NW 9.2 mph - N/A   Overcast
5:35 PM 45.0 °F 38.9 °F 34.3 °F 66% 29.87 in 10.0 mi WNW 12.7 mph 17.3 mph N/A   Overcast
5:55 PM 45.1 °F 41.4 °F 34.0 °F 65% 29.88 in 10.0 mi NW 6.9 mph - N/A   Overcast
6:15 PM 44.8 °F 39.9 °F 33.1 °F 64% 29.88 in 10.0 mi NW 9.2 mph 20.7 mph N/A   Overcast
6:35 PM 44.6 °F 38.4 °F 32.5 °F 63% 29.89 in 10.0 mi NW 12.7 mph 18.4 mph N/A   Overcast
6:55 PM 44.2 °F 39.2 °F 32.4 °F 63% 29.89 in 10.0 mi NW 9.2 mph 17.3 mph N/A   Overcast
7:15 PM 44.2 °F 40.3 °F 32.9 °F 64% 29.89 in 10.0 mi NNW 6.9 mph - N/A   Overcast
7:35 PM 43.9 °F 38.8 °F 32.4 °F 64% 29.90 in 10.0 mi NW 9.2 mph - N/A   Overcast
7:55 PM 43.7 °F 39.7 °F 32.2 °F 64% 29.90 in 10.0 mi NW 6.9 mph - N/A   Overcast
8:15 PM 43.7 °F 39.1 °F 32.0 °F 63% 29.90 in 10.0 mi NNW 8.1 mph - N/A   Overcast
8:35 PM 43.7 °F 41.1 °F 32.0 °F 63% 29.90 in 10.0 mi NNW 4.6 mph - N/A   Overcast
8:54 PM 43.2 °F 39.7 °F 32.0 °F 65% 29.91 in 10.0 mi NW 5.8 mph - N/A   Overcast
9:15 PM 43.0 °F 39.5 °F 32.0 °F 65% 29.91 in 10.0 mi NW 5.8 mph - N/A   Overcast
9:35 PM 43.0 °F 38.2 °F 32.0 °F 65% 29.92 in 10.0 mi NW 8.1 mph - N/A   Overcast
9:55 PM 43.2 °F 39.0 °F 32.0 °F 65% 29.93 in 10.0 mi NW 6.9 mph - N/A   Overcast
10:15 PM 43.0 °F 39.5 °F 32.0 °F 65% 29.93 in 10.0 mi NNW 5.8 mph - N/A   Overcast
10:35 PM 43.0 °F 39.5 °F 32.0 °F 65% 29.93 in 10.0 mi NW 5.8 mph - N/A   Overcast
10:55 PM 43.0 °F 41.3 °F 32.0 °F 65% 29.93 in 10.0 mi NW 3.5 mph - N/A   Overcast
11:15 PM 42.4 °F 39.6 °F 32.0 °F 67% 29.93 in 10.0 mi NNW 4.6 mph - N/A   Overcast
11:35 PM 41.0 °F - 31.8 °F 70% 29.92 in 10.0 mi Calm Calm - N/A   Scattered Clouds
11:55 PM 36.5 °F - 30.0 °F 77% 29.91 in 10.0 mi Calm Calm - N/A   Clear